Weather History for Sheringham Point, BC

Change the Weather History Date:

Thursday, December 6, 2012

  Actual Average Record
Temperature  
Mean Temperature 43 °F -  
Max Temperature 45 °F - - ()
Min Temperature 41 °F - - ()
Degree Days  
Heating Degree Days 22    
Moisture  
Dew Point 40 °F    
Average Humidity 86    
Maximum Humidity 93    
Minimum Humidity 72    
Precipitation  
Precipitation 0.39 in - - ()
Sea Level Pressure  
Sea Level Pressure 30.06 in    
Wind  
Wind Speed 10 mph ()    
Max Wind Speed 18 mph    
Max Gust Speed 41 mph    
T = Trace of Precipitation, MM = Missing Value Source: Averaged Metar Reports

Daily Weather History Graph

Daily Weather History Graph

Search for Another Location

Airport:

Trip Planner

Search our weather history database for the weather conditions in past years. The results will help you decide how hot, cold, wet, or windy it might be!

Date:

Astronomy

Dec. 06, 2012 Rise Set
Actual Time 7:52 AM PST 4:21 PM PST
Civil Twilight 7:16 AM PST 4:57 PM PST
Nautical Twilight 6:36 AM PST 5:37 PM PST
Astronomical Twilight 5:58 AM PST 6:15 PM PST
Moon No Moon Rise 12:19 PM PST (12/6)
Length of Visible Light 9h 41m
Length of Day
8h 28m
Waning Gibbous, 48% of the Moon is Illuminated
Dec 6
Waning Gibbous
Dec 13
New
Dec 19
First Quarter
Dec 28
Full
Jan 4
Last Quarter

Hourly Weather History & Observations

Time (PST) Temp. Windchill Dew Point Humidity Pressure Visibility Wind Dir Wind Speed Gust Speed Precip Events Conditions
12:00 AM 44.2 °F 37.3 °F 40.1 °F 85% 30.13 in - West 15.0 mph - 0.03 in   Unknown
1:00 AM 44.6 °F 38.1 °F 40.3 °F 85% 30.12 in - West 13.8 mph - 0.06 in   Unknown
2:00 AM 44.6 °F 38.1 °F 38.8 °F 80% 30.12 in - West 13.8 mph - 0.02 in   Unknown
3:00 AM 45.1 °F 39.5 °F 40.3 °F 83% 30.11 in - WSW 11.5 mph - N/A   Unknown
4:00 AM 46 °F - 40 °F 72% 30.08 in - WSW 16.1 mph - -  
4:00 AM 45.5 °F 38.6 °F 39.7 °F 80% 30.08 in - WSW 16.1 mph - N/A   Unknown
5:00 AM 45.3 °F 39.3 °F 40.6 °F 84% 30.07 in - WSW 12.7 mph - 0.02 in   Unknown
6:00 AM 45.1 °F 37.9 °F 40.6 °F 84% 30.05 in - WSW 17.3 mph - 0.04 in   Unknown
7:00 AM 45.1 °F 37.6 °F 40.3 °F 83% 30.04 in - WSW 18.4 mph - N/A   Unknown
8:00 AM 44.2 °F 38.0 °F 41.0 °F 88% 30.04 in - WSW 12.7 mph - 0.07 in   Unknown
9:00 AM 41.4 °F 33.0 °F 38.3 °F 89% 30.04 in - WNW 17.3 mph 25.3 mph 0.14 in   Unknown
10:00 AM 42 °F - 40 °F 88% 30.06 in - WNW 9.2 mph - -  
10:00 AM 41.9 °F 36.3 °F 39.7 °F 92% 30.06 in - WNW 9.2 mph 41.4 mph 0.12 in   Unknown
11:00 AM 42.1 °F 39.2 °F 39.9 °F 92% 30.06 in - WNW 4.6 mph - 0.03 in   Unknown
12:00 PM 42.4 °F 37.0 °F 40.1 °F 91% 30.04 in - WNW 9.2 mph - 0.02 in   Unknown
1:00 PM 42.8 °F 36.6 °F 40.5 °F 91% 30.04 in - WNW 11.5 mph - 0.05 in   Unknown
2:00 PM 42.1 °F 38.4 °F 40.1 °F 93% 30.03 in - WNW 5.8 mph - 0.05 in   Unknown
3:00 PM 42.1 °F 39.2 °F 39.9 °F 92% 30.03 in - WNW 4.6 mph - 0.02 in   Unknown
4:00 PM 42 °F - 39 °F 87% 30.04 in - WNW 9.2 mph - -  
4:00 PM 42.3 °F 36.8 °F 39.4 °F 90% 30.04 in - WNW 9.2 mph - N/A   Unknown
5:00 PM 41.9 °F 36.9 °F 39.0 °F 90% 30.05 in - WNW 8.1 mph - N/A   Unknown
6:00 PM 42.1 °F 37.7 °F 38.8 °F 88% 30.06 in - WNW 6.9 mph - N/A   Unknown
7:00 PM 41.9 °F 38.2 °F 38.8 °F 89% 30.06 in - WNW 5.8 mph - N/A   Unknown
8:00 PM 43.3 °F 39.9 °F 39.2 °F 85% 30.07 in - WNW 5.8 mph - N/A   Unknown
9:00 PM 43.2 °F 39.7 °F 39.0 °F 85% 30.07 in - NW 5.8 mph - N/A   Unknown
10:00 PM 44 °F - 40 °F 79% 30.05 in - WNW 5.8 mph - -  
10:00 PM 43.9 °F 40.5 °F 39.7 °F 85% 30.05 in - WNW 5.8 mph - N/A   Unknown
11:00 PM 43.5 °F 40.9 °F 40.3 °F 88% 30.03 in - WNW 4.6 mph - 0.02 in   Unknown